Weather History for Ord, NE

Change the Weather History Date:

Saturday, March 2, 2013

  Actual Average Record
Temperature  
Mean Temperature 27 °F 32 °F  
Max Temperature 45 °F 45 °F 61 °F (2005)
Min Temperature 9 °F 19 °F -9 °F (2014)
Degree Days  
Heating Degree Days 38    
Month to date heating degree days 80  
Cooling Degree Days 0    
Month to date cooling degree days 0  
Year to date cooling degree days 0  
Moisture  
Dew Point 23 °F    
Average Humidity 83    
Maximum Humidity 100    
Minimum Humidity 65    
Precipitation  
Precipitation 0.00 in 0.01 in 0.57 in (1951)
Month to date precipitation 0.00 0.02  
Year to date precipitation 1.62 0.83  
Sea Level Pressure  
Sea Level Pressure 30.22 in    
Wind  
Wind Speed 4 mph (SSE)    
Max Wind Speed 14 mph    
Max Gust Speed 17 mph    
Visibility 9 miles    
Events      
T = Trace of Precipitation, MM = Missing Value Source: NWS Daily Summary

Daily Weather History Graph

Daily Weather History Graph

Search for Another Location

Airport:

Trip Planner

Search our weather history database for the weather conditions in past years. The results will help you decide how hot, cold, wet, or windy it might be!

Date:

Astronomy

Mar. 02, 2013 Rise Set
Actual Time 7:08 AM CST 6:27 PM CST
Civil Twilight 6:40 AM CST 6:55 PM CST
Nautical Twilight 6:08 AM CST 7:27 PM CST
Astronomical Twilight 5:36 AM CST 8:00 PM CST
Moon No Moon Rise 9:33 AM CST (3/2)
Length of Visible Light 12h 15m
Length of Day
11h 19m
Waning Gibbous, 74% of the Moon is Illuminated
Mar 2
Waning Gibbous
Mar 4
Last Quarter
Mar 11
New
Mar 19
First Quarter
Mar 27
Full

Hourly Weather History & Observations

Time (CST) Temp. Windchill Dew Point Humidity Pressure Visibility Wind Dir Wind Speed Gust Speed Precip Events Conditions
12:53 AM 14.0 °F - 10.9 °F 88% 30.39 in 10.0 mi Calm Calm - N/A   Clear
1:53 AM 10.9 °F 4.7 °F 8.1 °F 88% 30.40 in 10.0 mi SSW 3.5 mph - N/A   Clear
2:53 AM 9.0 °F - 6.1 °F 88% 30.40 in 10.0 mi Calm Calm - N/A   Clear
3:53 AM 10.0 °F 1.8 °F 7.0 °F 87% 30.37 in 10.0 mi SSW 4.6 mph - N/A   Clear
4:53 AM 14.0 °F - 10.9 °F 88% 30.36 in 10.0 mi Calm Calm - N/A   Scattered Clouds
5:53 AM 16.0 °F 8.8 °F 14.0 °F 92% 30.35 in 10.0 mi ESE 4.6 mph - N/A   Overcast
6:53 AM 18.0 °F - 15.1 °F 88% 30.33 in 10.0 mi Calm Calm - N/A   Overcast
7:53 AM 21.0 °F 16.2 °F 18.0 °F 88% 30.33 in 10.0 mi SSE 3.5 mph - N/A   Overcast
8:53 AM 24.1 °F 17.0 °F 19.9 °F 84% 30.32 in 10.0 mi South 5.8 mph - N/A   Overcast
9:53 AM 28.0 °F 20.0 °F 23.0 °F 81% 30.30 in 10.0 mi South 8.1 mph - N/A   Mostly Cloudy
10:53 AM 30.9 °F 25.2 °F 25.0 °F 79% 30.27 in 10.0 mi South 5.8 mph - N/A   Overcast
11:53 AM 34.0 °F 26.6 °F 27.0 °F 75% 30.24 in 10.0 mi South 9.2 mph - N/A   Clear
12:53 PM 37.9 °F 31.5 °F 28.9 °F 70% 30.22 in 10.0 mi South 9.2 mph - N/A   Clear
1:53 PM 41.0 °F 35.2 °F 30.9 °F 67% 30.17 in 10.0 mi South 9.2 mph - N/A   Clear
2:53 PM 45.0 °F 40.1 °F 33.1 °F 63% 30.15 in 10.0 mi South 9.2 mph - N/A   Clear
3:53 PM 43.0 °F 37.7 °F 32.0 °F 65% 30.13 in 10.0 mi SSE 9.2 mph - N/A   Clear
4:53 PM 43.0 °F 38.8 °F 34.0 °F 71% 30.11 in 10.0 mi South 6.9 mph - N/A   Clear
5:53 PM 41.0 °F 38.0 °F 33.1 °F 73% 30.11 in 10.0 mi SSE 4.6 mph - N/A   Clear
6:53 PM 37.0 °F 33.3 °F 32.0 °F 82% 30.12 in 10.0 mi SE 4.6 mph - N/A   Clear
7:53 PM 34.0 °F 29.8 °F 30.0 °F 85% 30.10 in 9.0 mi SE 4.6 mph - N/A   Mostly Cloudy
8:53 PM 33.1 °F 30.0 °F 30.9 °F 92% 30.08 in 8.0 mi ESE 3.5 mph - N/A   Clear
9:53 PM 30.9 °F - 30.0 °F 96% 30.08 in 6.0 mi Calm Calm - N/A   Clear
10:53 PM 30.2 °F - 28.4 °F 93% 30.00 in 5.0 mi Calm Calm - N/A   Clear
11:53 PM 28.9 °F - 27.0 °F 92% 30.04 in 5.0 mi Calm Calm - N/A   Clear